Location: Ecklingerode
(51.5036°N, 10.3122°E)
Time: 14:32:19
(UTC+00:00)

ATLAS 5 CENTAUR R/B - Pass Details

Date: 29 October 2020
Orbit: 531 x 1127 km, 63.4° (Epoch: 22 November)

Event Time Altitude Azimuth Distance (km) Brightness Sun altitude
Rises 19:54:52 0° 312° (NW) 3,079 6.0 -36.9°
Reaches altitude 10° 19:57:15 10° 321° (NW) 2,248 5.1 -37.2°
Enters shadow 19:59:01 20° 335° (NNW) 1,713 4.2 -37.4°
